Location: Rancho Santa Fe Post Office
(33.0184°N, 117.2026°W)
Time: 01:26:50
(UTC+00:00)

Cosmos 1758 Rocket - Pass Details

Date: 10 September 2024
Orbit: 597 x 632 km, 82.5° (Epoch: 06 October)

Event Time Altitude Azimuth Distance (km) Brightness Sun altitude
Rises 12:19:16 0° 341° (NNW) 2,896 7.0 -15.3°
Reaches altitude 10° 12:21:41 10° 331° (NNW) 1,980 6.0 -14.8°
Maximum altitude 12:25:31 30° 270° (W) 1,092 4.3 -14.0°
Drops below altitude 10° 12:29:18 10° 208° (SSW) 1,949 5.7 -13.3°
Enters shadow 12:30:19 - 203° (SSW) 2,315 6.1 -13.0°
